Regional Weather Roundup
Issued by NWS Charleston, SC

Current Version | Previous Version | Graphics & Text | Print | Product List | Glossary On
Versions: 1 2 3 4 5 6 7 8 9 10 11 12 13 14 15 16 17 18 19 20 21 22 23 24 25 26 27 28 29 30 31 32 33 34 35 36 37 38 39 40 41 42 43 44 45 46 47 48 49 50
000
ASUS42 KCHS 191110
RWRCHS
REGIONAL WEATHER ROUNDUP
NATIONAL WEATHER SERVICE CHARLESTON SC
700 AM EDT SAT APR 19 2014

NOTE: "FAIR" INDICATES FEW OR NO CLOUDS BELOW 12,000 FEET WITH NO
SIGNIFICANT WEATHER AND/OR OBSTRUCTIONS TO VISIBILITY.

NOT ALL STATIONS ARE QUALITY CONTROLLED BY THE NATIONAL
WEATHER SERVICE. USE DATA WITH CAUTION...ESPECIALLY
DEWPOINT OBSERVATIONS.

SCZ027-030-031-034>040-042>050-191200-
...SOUTH CAROLINA...

CITY           SKY/WX    TMP DP  RH WIND       PRES   REMARKS
N CHARLESTON   LGT RAIN  59  57  93 N9        29.94S FOG
WATERFRONT PRK   N/A     61 N/A N/A N10         N/A
FORT JOHNSON   NOT AVBL
MOUNT PLEASANT CLOUDY   N/A N/A N/A NE5       29.93S HAZE
JOHNS ISLAND   CLOUDY    61  61 100 N7        29.93S FOG
PINOPOLIS        N/A     57  55  94 NE10      29.89R
MONCKS CORNER  CLOUDY    57  57 100 N3        29.96S
SUMMERVILLE    NOT AVBL
BEAUFORT MCAS  CLOUDY    58  56  93 NE12      29.93S FOG
BEAUFORT ARPT  CLOUDY    59  59 100 N8        29.92S
HILTON HEAD IS CLOUDY    61  61 100 N8        29.92S FOG
GEORGETOWN     NOT AVBL
WALTERBORO     DRIZZLE   54 N/A N/A N8        29.97R
ORANGEBURG     CLOUDY    53  50  89 N10       30.00R
BARNWELL       CLOUDY    54  52  94 NE14G21   29.99S
AIKEN          CLOUDY    52  52 100 NE17G24   30.04R
MANNING        CLOUDY    55 N/A N/A N7        30.00R
KINGSTREE      NOT AVBL
COLUMBIA       LGT RAIN  53  51  93 N10       30.03R FOG
SUMTER         LGT RAIN  54  52  94 N12       30.01R
FLORENCE       LGT RAIN  55  52  89 NE21      30.01R FOG
MYRTLE BEACH   CLOUDY    55  55 100 NE10      29.98R
N MYRTLE BEACH LGT RAIN  57  55  93 NE13      29.97R FOG

$$

GAZ063-065-086>088-099>101-113>116-118-119-134-136>141-150-191200-
...GEORGIA...

CITY           SKY/WX    TMP DP  RH WIND       PRES   REMARKS
SAVANNAH ARPT  CLOUDY    58  56  93 N8        29.93R FOG
HUNTER AAF     CLOUDY    59  59 100 VRB6      29.90R FOG
FORT STEWART   LGT RAIN  58  58 100 N8        29.91R
STATESBORO     NOT AVBL
SYLVANIA       CLOUDY    56  53  91 NE10G17   29.97R FOG
CLAXTON        DRIZZLE  N/A N/A N/A NE7       29.95R
THOMSON        CLOUDY    51  51 100 NE9G23    30.07R
AUGUSTA-BUSH   CLOUDY    53  49  86 N10       30.01R
AUGUSTA-DANIEL LGT RAIN  53  51  93 N10       30.01R
SWAINSBORO     CLOUDY    52  52 100 NE9       29.97S
VIDALIA        LGT RAIN  54  52  94 NE12      29.94S
ALMA           CLOUDY    55  52  89 VRB7      29.91R
WAYCROSS       NOT AVBL
JESUP          RAIN      55  55 100 NE5       29.91R
BRUNSWICK      CLOUDY    63  63 100 NE3       29.90S
SAINT SIMONS   LGT RAIN  63  63 100 N5        29.89R FOG

$$

SCZ027-028-034-036>038-045-046-048>050-GAZ119-141-191200-
...LAKE AND SUPPLEMENTAL COASTAL OBSERVATIONS...

STATION/POSITION TIME  TEMP    WIND        PRES    WAVE   SWELL
                       AIR SEA DIR/SP/G            HT/PER HT/PER/DIR
                 (UTC) (F)     (DEG/KT/KT) (MB)    (FT/S) (FT/S/D)
UPR LAKE MARION  NOT AVBL
WINYAH BAY       1000   59      60/ 14     1013.0R
LAKE MURRAY      1000   51      20/  4/  8 1016.6R
ACE BASIN NERRS  1000   59      10/  3     1013.0S
FORT PULASKI     1100   60 59  360/  7/ 10 1012.9R
SAPELO ISLAND    1000   63      10/  6     1012.0S

$$

ANZ835-935-AMZ111-154-330-350-352-354-374-450-454-472-191200-
...C-MAN AND BUOY OBSERVATIONS...

STATION/POSITION TIME  TEMP    WIND        PRES    WAVE   SWELL
                       AIR SEA DIR/SP/G            HT/PER HT/PER/DIR
                 (UTC) (F)     (DEG/KT/KT) (MB)    (FT/S) (FT/S/D)
FOLLY BEACH CMAN 1000   61      60/ 13/ 15 1013.7R
BUOY 41004       NOT AVBL
BUOY 41008       1100   65 64   CALM  /  2 1012.0S   5/ 7   5/120/ 7
5E ST. MARYS GA  1100      64                N/A     4/ 7   2/ 90/11
FRYING PAN BUOY  1100   66 65  230/  8/ 10 1014.1R   8/ 7   8/ 90/ 7
BUOY 41025       NOT AVBL
CAPE LOOKOUT NC  1000   56      10/ 17/ 21 1017.5R
BUOY 41002       NOT AVBL
BUOY 41010       1100   76 76  170/ 17/ 21 1013.3R   8/ 6   3/ 80/ 9
BUOY 41012       NOT AVBL
ST AUGUSTINE FL  1100   65     180/  1/  2 1012.7R
CAPERS NEARSHORE NOT AVBL
FRIPP NEARSHORE  1000   63     100/  6/ 10   N/A


$$


USA.gov is the U.S. government's official web portal to all federal, state and local government web resources and services.